Overview Statistics Trail Chart Weather Telemetry Raw packets
 

This is the latest recevied weather packets stored in our database for station/object SP6PGH-13. If no packets are shown the sender has not sent any weather packets the latest 10 day(s).

<< 6 7 8 9 10 11 12 >>
Time Temp. Humidity Pressure Rain* Wind** Luminosity Snow
1788443672 22.78° C 49% 1003.3 hPa - - 217 W/m² -
1788442771 22.78° C 51% 1003.4 hPa - - 223 W/m² -
1788441870 23.33° C 50% 1003.5 hPa - - 342 W/m² -
1788440969 22.78° C 50% 1003.6 hPa - - 301 W/m² -
1788440068 22.78° C 49% 1003.7 hPa - - 345 W/m² -
1788439167 22.78° C 50% 1003.8 hPa - - 262 W/m² -
1788438266 22.78° C 53% 1003.9 hPa - - 344 W/m² -
1788437365 22.78° C 52% 1003.9 hPa - - 376 W/m² -
1788436490 22.22° C 55% 1004.1 hPa - - 272 W/m² -
1788435564 22.78° C 50% 1004.3 hPa - - 325 W/m² -
1788434662 22.22° C 51% 1004.4 hPa - - 391 W/m² -
1788433761 22.22° C 52% 1004.5 hPa - - 356 W/m² -
1788432860 22.22° C 58% 1004.7 hPa - - 338 W/m² -
1788431959 22.22° C 56% 1004.7 hPa - - 343 W/m² -
1788431059 22.22° C 57% 1004.8 hPa - - 453 W/m² -
1788430157 21.67° C 61% 1004.9 hPa - - 349 W/m² -
1788429256 21.67° C 63% 1005 hPa - - 400 W/m² -
1788428355 22.78° C 64% 1005 hPa - - 609 W/m² -
1788427454 22.22° C 64% 1005.2 hPa - - 526 W/m² -
1788426553 21.11° C 64% 1005.2 hPa - - 408 W/m² -
1788425652 21.67° C 64% 1005.2 hPa - - 514 W/m² -
1788424751 21.67° C 65% 1005.4 hPa - - 471 W/m² -
1788423850 20.56° C 68% 1005.5 hPa - - 438 W/m² -
1788422948 19.44° C 73% 1005.6 hPa - - 190 W/m² -
1788422047 20° C 69% 1005.5 hPa - - 379 W/m² -

* Rain since midnight (hover to see other rain measurements)
** Current wind speed in m/s (hover to see current wind gust speed)